TimeEDT,TemperatureF,Dew PointF,Humidity,Sea Level PressureIn,VisibilityMPH,Wind Direction,Wind SpeedMPH,Gust SpeedMPH,PrecipitationIn,Events,Conditions,WindDirDegrees,DateUTC
12:53 AM,33.1,28.0,82,30.34,10.0,East,3.5,-,N/A,,Clear,100,2012-10-13 04:53:00
1:53 AM,35.1,26.1,70,30.31,10.0,SE,6.9,-,N/A,,Clear,130,2012-10-13 05:53:00
2:53 AM,37.0,28.0,70,30.30,10.0,SSE,9.2,-,N/A,,Clear,150,2012-10-13 06:53:00
3:53 AM,37.9,30.0,73,30.30,10.0,SSE,5.8,-,N/A,,Clear,160,2012-10-13 07:53:00
4:53 AM,39.9,30.9,70,30.25,10.0,SSE,8.1,-,N/A,,Clear,150,2012-10-13 08:53:00
5:53 AM,43.0,32.0,65,30.23,10.0,SSE,9.2,-,N/A,,Mostly Cloudy,150,2012-10-13 09:53:00
6:53 AM,44.1,32.0,63,30.21,10.0,ESE,5.8,-,0.00,Rain,Light Rain,120,2012-10-13 10:53:00
7:53 AM,42.1,36.0,79,30.22,10.0,East,4.6,-,0.02,Rain,Light Rain,80,2012-10-13 11:53:00
8:53 AM,42.1,37.0,82,30.22,8.0,East,4.6,-,0.06,Rain,Rain,90,2012-10-13 12:53:00
9:53 AM,42.1,37.9,85,30.20,6.0,SE,9.2,-,0.13,Rain,Rain,140,2012-10-13 13:53:00
11:53 AM,46.0,42.1,86,30.09,10.0,SE,9.2,-,0.00,,Overcast,130,2012-10-13 15:53:00
12:53 PM,48.9,43.0,80,30.04,10.0,SSE,13.8,19.6,N/A,,Mostly Cloudy,150,2012-10-13 16:53:00
1:41 PM,50.0,44.6,82,29.99,10.0,SSE,12.7,20.7,0.01,Rain,Light Rain,160,2012-10-13 17:41:00
1:53 PM,50.0,44.1,80,30.00,10.0,South,13.8,18.4,0.01,Rain,Light Rain,170,2012-10-13 17:53:00
2:53 PM,50.0,46.0,86,29.96,10.0,SSE,13.8,-,0.08,Rain,Light Rain,160,2012-10-13 18:53:00
3:11 PM,50.0,46.4,87,29.93,10.0,South,12.7,-,0.02,Rain,Light Rain,170,2012-10-13 19:11:00
4:23 PM,51.8,48.2,88,29.92,10.0,South,9.2,-,0.01,Rain,Light Rain,170,2012-10-13 20:23:00
4:53 PM,52.0,48.9,89,29.91,8.0,South,9.2,-,0.01,Rain,Light Rain,170,2012-10-13 20:53:00
5:53 PM,55.0,52.0,89,29.88,6.0,South,10.4,-,0.02,Rain,Light Rain,170,2012-10-13 21:53:00
6:03 PM,55.4,51.8,88,29.87,5.0,South,10.4,-,0.01,Rain,Light Rain,170,2012-10-13 22:03:00
6:43 PM,55.4,53.6,94,29.86,2.5,South,9.2,-,0.15,Rain,Heavy Rain,170,2012-10-13 22:43:00
6:51 PM,55.4,53.6,94,29.85,5.0,South,8.1,-,0.16,Rain,Light Rain,180,2012-10-13 22:51:00
6:53 PM,55.9,53.1,90,29.86,6.0,South,8.1,-,0.16,Rain,Light Rain,170,2012-10-13 22:53:00
7:05 PM,55.4,53.6,94,29.84,5.0,South,9.2,-,0.00,Rain,Light Rain,170,2012-10-13 23:05:00
8:53 PM,60.1,57.0,90,29.79,6.0,SSW,9.2,-,N/A,,Overcast,200,2012-10-14 00:53:00
9:32 PM,64.4,60.8,88,29.84,8.0,SW,19.6,31.1,N/A,,Overcast,220,2012-10-14 01:32:00
10:53 PM,64.0,61.0,90,29.84,7.0,SW,15.0,-,N/A,,Overcast,220,2012-10-14 02:53:00
11:28 PM,64.4,60.8,88,29.83,7.0,SSW,15.0,-,N/A,,Overcast,210,2012-10-14 03:28:00
11:53 PM,64.9,61.0,87,29.83,8.0,SSW,13.8,23.0,N/A,,Overcast,210,2012-10-14 03:53:00